Year,Month,Day,Hour,Minute,Value (Times are PST for temperature in C)
2013,07,19,00,00,16.10
2013,07,19,00,01,16.10
2013,07,19,00,02,16.10
2013,07,19,00,03,16.10
2013,07,19,00,04,16.00
2013,07,19,00,05,16.00
2013,07,19,00,06,16.00
2013,07,19,00,07,16.00
2013,07,19,00,08,16.00
2013,07,19,00,09,16.00
2013,07,19,00,10,16.00
2013,07,19,00,11,16.00
2013,07,19,00,12,15.90
2013,07,19,00,13,15.90
2013,07,19,00,14,15.90
2013,07,19,00,15,15.90
2013,07,19,00,16,15.90
2013,07,19,00,17,15.90
2013,07,19,00,18,15.90
2013,07,19,00,19,15.90
2013,07,19,00,20,15.80
2013,07,19,00,21,15.80
2013,07,19,00,22,15.80
2013,07,19,00,23,15.80
2013,07,19,00,24,15.80
2013,07,19,00,25,15.70
2013,07,19,00,26,15.70
2013,07,19,00,27,15.70
2013,07,19,00,28,15.70
2013,07,19,00,29,15.70
2013,07,19,00,30,15.70
2013,07,19,00,31,15.70
2013,07,19,00,32,15.70
2013,07,19,00,33,15.70
2013,07,19,00,34,15.60
2013,07,19,00,35,15.60
2013,07,19,00,36,15.60
2013,07,19,00,37,15.60
2013,07,19,00,38,15.60
2013,07,19,00,39,15.60
2013,07,19,00,40,15.60
2013,07,19,00,41,15.60
2013,07,19,00,42,15.60
2013,07,19,00,43,15.60
2013,07,19,00,44,15.50
2013,07,19,00,45,15.50
2013,07,19,00,46,15.50
2013,07,19,00,47,15.50
2013,07,19,00,48,15.50
2013,07,19,00,49,15.50
2013,07,19,00,50,15.50
2013,07,19,00,51,15.50
2013,07,19,00,52,15.50
2013,07,19,00,53,15.50
2013,07,19,00,54,15.50
2013,07,19,00,55,15.50
2013,07,19,00,56,15.40
2013,07,19,00,57,15.40
2013,07,19,00,58,15.40
2013,07,19,00,59,15.40
2013,07,19,01,00,15.40
2013,07,19,01,01,15.40
2013,07,19,01,02,15.40
2013,07,19,01,03,15.40
2013,07,19,01,04,15.40
2013,07,19,01,05,15.30
2013,07,19,01,06,15.30
2013,07,19,01,07,15.30
2013,07,19,01,08,15.30
2013,07,19,01,09,15.30
2013,07,19,01,10,15.30
2013,07,19,01,11,15.30
2013,07,19,01,12,15.20
2013,07,19,01,13,15.20
2013,07,19,01,14,15.20
2013,07,19,01,15,15.20
2013,07,19,01,16,15.20
2013,07,19,01,17,15.20
2013,07,19,01,18,15.20
2013,07,19,01,19,15.20
2013,07,19,01,20,15.20
2013,07,19,01,21,15.10
2013,07,19,01,22,15.10
2013,07,19,01,23,15.10
2013,07,19,01,24,15.10
2013,07,19,01,25,15.10
2013,07,19,01,26,15.10
2013,07,19,01,27,15.10
2013,07,19,01,28,15.00
2013,07,19,01,29,15.00
2013,07,19,01,30,15.00
2013,07,19,01,31,15.00
2013,07,19,01,32,14.90
2013,07,19,01,33,14.90
2013,07,19,01,34,14.90
2013,07,19,01,35,14.90
2013,07,19,01,36,14.90
2013,07,19,01,37,14.90
2013,07,19,01,38,14.80
2013,07,19,01,39,14.80
2013,07,19,01,40,14.80
2013,07,19,01,41,14.80
2013,07,19,01,42,14.80
2013,07,19,01,43,14.80
2013,07,19,01,44,14.80
2013,07,19,01,45,14.80
2013,07,19,01,46,14.80
2013,07,19,01,47,14.70
2013,07,19,01,48,14.70
2013,07,19,01,49,14.70
2013,07,19,01,50,14.70
2013,07,19,01,51,14.70
2013,07,19,01,52,14.70
2013,07,19,01,53,14.70
2013,07,19,01,54,14.70
2013,07,19,01,55,14.70
2013,07,19,01,56,14.70
2013,07,19,01,57,14.70
2013,07,19,01,58,14.70
2013,07,19,01,59,14.70
2013,07,19,02,00,14.70
2013,07,19,02,01,14.60
2013,07,19,02,02,14.60
2013,07,19,02,03,14.60
2013,07,19,02,04,14.60
2013,07,19,02,05,14.60
2013,07,19,02,06,14.60
2013,07,19,02,07,14.60
2013,07,19,02,08,14.60
2013,07,19,02,09,14.60
2013,07,19,02,10,14.50
2013,07,19,02,11,14.50
2013,07,19,02,12,14.50
2013,07,19,02,13,14.50
2013,07,19,02,14,14.50
2013,07,19,02,15,14.40
2013,07,19,02,16,14.40
2013,07,19,02,17,14.40
2013,07,19,02,18,14.40
2013,07,19,02,19,14.40
2013,07,19,02,20,14.40
2013,07,19,02,21,14.40
2013,07,19,02,22,14.30
2013,07,19,02,23,14.30
2013,07,19,02,24,14.30
2013,07,19,02,25,14.30
2013,07,19,02,26,14.30
2013,07,19,02,27,14.30
2013,07,19,02,28,14.30
2013,07,19,02,29,14.30
2013,07,19,02,30,14.30
2013,07,19,02,31,14.30
2013,07,19,02,32,14.30
2013,07,19,02,33,14.30
2013,07,19,02,34,14.30
2013,07,19,02,35,14.20
2013,07,19,02,36,14.20
2013,07,19,02,37,14.20
2013,07,19,02,38,14.20
2013,07,19,02,39,14.20
2013,07,19,02,40,14.20
2013,07,19,02,41,14.20
2013,07,19,02,42,14.20
2013,07,19,02,43,14.20
2013,07,19,02,44,14.20
2013,07,19,02,45,14.20
2013,07,19,02,46,14.10
2013,07,19,02,47,14.10
2013,07,19,02,48,14.10
2013,07,19,02,49,14.00
2013,07,19,02,50,14.00
2013,07,19,02,51,14.00
2013,07,19,02,52,14.00
2013,07,19,02,53,13.90
2013,07,19,02,54,13.90
2013,07,19,02,55,13.90
2013,07,19,02,56,13.90
2013,07,19,02,57,13.90
2013,07,19,02,58,13.90
2013,07,19,02,59,13.90
2013,07,19,03,00,13.80
2013,07,19,03,01,13.80
2013,07,19,03,02,13.80
2013,07,19,03,03,13.80
2013,07,19,03,04,13.80
2013,07,19,03,05,13.80
2013,07,19,03,06,13.80
2013,07,19,03,07,13.80
2013,07,19,03,08,13.80
2013,07,19,03,09,13.80
2013,07,19,03,10,13.80
2013,07,19,03,11,13.80
2013,07,19,03,12,13.80
2013,07,19,03,13,13.80
2013,07,19,03,14,13.80
2013,07,19,03,15,13.80
2013,07,19,03,16,13.80
2013,07,19,03,17,13.80
2013,07,19,03,18,13.80
2013,07,19,03,19,13.80
2013,07,19,03,20,13.80
2013,07,19,03,21,13.80
2013,07,19,03,22,13.70
2013,07,19,03,23,13.70
2013,07,19,03,24,13.70
2013,07,19,03,25,13.70
2013,07,19,03,26,13.70
2013,07,19,03,27,13.70
2013,07,19,03,28,13.70
2013,07,19,03,29,13.70
2013,07,19,03,30,13.70
2013,07,19,03,31,13.70
2013,07,19,03,32,13.70
2013,07,19,03,33,13.70
2013,07,19,03,34,13.70
2013,07,19,03,35,13.60
2013,07,19,03,36,13.60
2013,07,19,03,37,13.60
2013,07,19,03,38,13.60
2013,07,19,03,39,13.60
2013,07,19,03,40,13.60
2013,07,19,03,41,13.60
2013,07,19,03,42,13.60
2013,07,19,03,43,13.60
2013,07,19,03,44,13.60
2013,07,19,03,45,13.60
2013,07,19,03,46,13.60
2013,07,19,03,47,13.60
2013,07,19,03,48,13.60
2013,07,19,03,49,13.60
2013,07,19,03,50,13.60
2013,07,19,03,51,13.60
2013,07,19,03,52,13.60
2013,07,19,03,53,13.50
2013,07,19,03,54,13.50
2013,07,19,03,55,13.50
2013,07,19,03,56,13.50
2013,07,19,03,57,13.50
2013,07,19,03,58,13.50
2013,07,19,03,59,13.40
2013,07,19,04,00,13.40
2013,07,19,04,01,13.40
2013,07,19,04,02,13.40
2013,07,19,04,03,13.40
2013,07,19,04,04,13.40
2013,07,19,04,05,13.40
2013,07,19,04,06,13.40
2013,07,19,04,07,13.40
2013,07,19,04,08,13.40
2013,07,19,04,09,13.40
2013,07,19,04,10,13.40
2013,07,19,04,11,13.40
2013,07,19,04,12,13.40
2013,07,19,04,13,13.40
2013,07,19,04,14,13.40
2013,07,19,04,15,13.30
2013,07,19,04,16,13.30
2013,07,19,04,17,13.30
2013,07,19,04,18,13.30
2013,07,19,04,19,13.30
2013,07,19,04,20,13.30
2013,07,19,04,21,13.30
2013,07,19,04,22,13.30
2013,07,19,04,23,13.30
2013,07,19,04,24,13.30
2013,07,19,04,25,13.20
2013,07,19,04,26,13.20
2013,07,19,04,27,13.20
2013,07,19,04,28,13.20
2013,07,19,04,29,13.20
2013,07,19,04,30,13.20
2013,07,19,04,31,13.20
2013,07,19,04,32,13.10
2013,07,19,04,33,13.10
2013,07,19,04,34,13.10
2013,07,19,04,35,13.10
2013,07,19,04,36,13.10
2013,07,19,04,37,13.10
2013,07,19,04,38,13.10
2013,07,19,04,39,13.00
2013,07,19,04,40,13.00
2013,07,19,04,41,13.00
2013,07,19,04,42,13.00
2013,07,19,04,43,13.00
2013,07,19,04,44,13.00
2013,07,19,04,45,13.00
2013,07,19,04,46,13.00
2013,07,19,04,47,13.00
2013,07,19,04,48,12.90
2013,07,19,04,49,12.90
2013,07,19,04,50,12.90
2013,07,19,04,51,12.90
2013,07,19,04,52,12.90
2013,07,19,04,53,12.90
2013,07,19,04,54,12.90
2013,07,19,04,55,12.90
2013,07,19,04,56,12.90
2013,07,19,04,57,12.90
2013,07,19,04,58,12.90
2013,07,19,04,59,12.90
2013,07,19,05,00,12.90
2013,07,19,05,01,12.90
2013,07,19,05,02,12.90
2013,07,19,05,03,12.90
2013,07,19,05,04,12.90
2013,07,19,05,05,12.90
2013,07,19,05,06,12.90
2013,07,19,05,07,12.90
2013,07,19,05,08,12.90
2013,07,19,05,09,12.90
2013,07,19,05,10,12.90
2013,07,19,05,11,12.90
2013,07,19,05,12,12.90
2013,07,19,05,13,12.90
2013,07,19,05,14,12.90
2013,07,19,05,15,12.80
2013,07,19,05,16,12.80
2013,07,19,05,17,12.80
2013,07,19,05,18,12.80
2013,07,19,05,19,12.80
2013,07,19,05,20,12.80
2013,07,19,05,21,12.80
2013,07,19,05,22,12.80
2013,07,19,05,23,12.80
2013,07,19,05,24,12.80
2013,07,19,05,25,12.80
2013,07,19,05,26,12.80
2013,07,19,05,27,12.80
2013,07,19,05,28,12.80
2013,07,19,05,29,12.80
2013,07,19,05,30,12.80
2013,07,19,05,31,12.80
2013,07,19,05,32,12.80
2013,07,19,05,33,12.70
2013,07,19,05,34,12.70
2013,07,19,05,35,12.70
2013,07,19,05,36,12.70
2013,07,19,05,37,12.70
2013,07,19,05,38,12.70
2013,07,19,05,39,12.70
2013,07,19,05,40,12.70
2013,07,19,05,41,12.70
2013,07,19,05,42,12.70
2013,07,19,05,43,12.70
2013,07,19,05,44,12.70
2013,07,19,05,45,12.70
2013,07,19,05,46,12.70
2013,07,19,05,47,12.70
2013,07,19,05,48,12.70
2013,07,19,05,49,12.70
2013,07,19,05,50,12.70
2013,07,19,05,51,12.70
2013,07,19,05,52,12.70
2013,07,19,05,53,12.70
2013,07,19,05,54,12.70
2013,07,19,05,55,12.70
2013,07,19,05,56,12.70
2013,07,19,05,57,12.70
2013,07,19,05,58,12.70
2013,07,19,05,59,12.70
2013,07,19,06,00,12.70
2013,07,19,06,01,12.80
2013,07,19,06,02,12.80
2013,07,19,06,03,12.80
2013,07,19,06,04,12.80
2013,07,19,06,05,12.80
2013,07,19,06,06,12.80
2013,07,19,06,07,12.80
2013,07,19,06,08,12.80
2013,07,19,06,09,12.80
2013,07,19,06,10,12.80
2013,07,19,06,11,12.80
2013,07,19,06,12,12.80
2013,07,19,06,13,12.80
2013,07,19,06,14,12.90
2013,07,19,06,15,12.90
2013,07,19,06,16,12.90
2013,07,19,06,17,12.90
2013,07,19,06,18,12.90
2013,07,19,06,19,12.90
2013,07,19,06,20,12.90
2013,07,19,06,21,12.90
2013,07,19,06,22,12.90
2013,07,19,06,23,12.90
2013,07,19,06,24,12.90
2013,07,19,06,25,12.90
2013,07,19,06,26,12.90
2013,07,19,06,27,12.90
2013,07,19,06,28,13.00
2013,07,19,06,29,13.00
2013,07,19,06,30,13.00
2013,07,19,06,31,13.10
2013,07,19,06,32,13.10
2013,07,19,06,33,13.20
2013,07,19,06,34,13.20
2013,07,19,06,35,13.30
2013,07,19,06,36,13.30
2013,07,19,06,37,13.40
2013,07,19,06,38,13.50
2013,07,19,06,39,13.50
2013,07,19,06,40,13.60
2013,07,19,06,41,13.70
2013,07,19,06,42,13.80
2013,07,19,06,43,13.80
2013,07,19,06,44,13.90
2013,07,19,06,45,14.00
2013,07,19,06,46,14.10
2013,07,19,06,47,14.10
2013,07,19,06,48,14.20
2013,07,19,06,49,14.30
2013,07,19,06,50,14.40
2013,07,19,06,51,14.60
2013,07,19,06,52,14.70
2013,07,19,06,53,14.80
2013,07,19,06,54,14.90
2013,07,19,06,55,15.10
2013,07,19,06,56,15.10
2013,07,19,06,57,15.20
2013,07,19,06,58,15.20
2013,07,19,06,59,15.30
2013,07,19,07,00,15.30
2013,07,19,07,01,15.40
2013,07,19,07,02,15.40
2013,07,19,07,03,15.50
2013,07,19,07,04,15.50
2013,07,19,07,05,15.50
2013,07,19,07,06,15.50
2013,07,19,07,07,15.40
2013,07,19,07,08,15.40
2013,07,19,07,09,15.30
2013,07,19,07,10,15.40
2013,07,19,07,11,15.40
2013,07,19,07,12,15.40
2013,07,19,07,13,15.50
2013,07,19,07,14,15.60
2013,07,19,07,15,15.60
2013,07,19,07,16,15.70
2013,07,19,07,17,15.70
2013,07,19,07,18,15.80
2013,07,19,07,19,15.80
2013,07,19,07,20,15.80
2013,07,19,07,21,15.80
2013,07,19,07,22,15.80
2013,07,19,07,23,15.80
2013,07,19,07,24,15.80
2013,07,19,07,25,15.80
2013,07,19,07,26,15.80
2013,07,19,07,27,15.90
2013,07,19,07,28,15.90
2013,07,19,07,29,15.90
2013,07,19,07,30,15.90
2013,07,19,07,31,15.90
2013,07,19,07,32,15.90
2013,07,19,07,33,15.90
2013,07,19,07,34,15.90
2013,07,19,07,35,16.00
2013,07,19,07,36,16.00
2013,07,19,07,37,16.10
2013,07,19,07,38,16.10
2013,07,19,07,39,16.20
2013,07,19,07,40,16.20
2013,07,19,07,41,16.20
2013,07,19,07,42,16.30
2013,07,19,07,43,16.30
2013,07,19,07,44,16.30
2013,07,19,07,45,16.40
2013,07,19,07,46,16.40
2013,07,19,07,47,16.50
2013,07,19,07,48,16.60
2013,07,19,07,49,16.70
2013,07,19,07,50,16.80
2013,07,19,07,51,16.80
2013,07,19,07,52,16.90
2013,07,19,07,53,17.10
2013,07,19,07,54,17.10
2013,07,19,07,55,17.20
2013,07,19,07,56,17.30
2013,07,19,07,57,17.40
2013,07,19,07,58,17.40
2013,07,19,07,59,17.40
2013,07,19,08,00,17.50
2013,07,19,08,01,17.50
2013,07,19,08,02,17.50
2013,07,19,08,03,17.60
2013,07,19,08,04,17.60
2013,07,19,08,05,17.60
2013,07,19,08,06,17.60
2013,07,19,08,07,17.60
2013,07,19,08,08,17.60
2013,07,19,08,09,17.60
2013,07,19,08,10,17.60
2013,07,19,08,11,17.60
2013,07,19,08,12,17.50
2013,07,19,08,13,17.50
2013,07,19,08,14,17.40
2013,07,19,08,15,17.40
2013,07,19,08,16,17.40
2013,07,19,08,17,17.40
2013,07,19,08,18,17.50
2013,07,19,08,19,17.50
2013,07,19,08,20,17.60
2013,07,19,08,21,17.70
2013,07,19,08,22,17.70
2013,07,19,08,23,17.80
2013,07,19,08,24,17.80
2013,07,19,08,25,17.80
2013,07,19,08,26,17.90
2013,07,19,08,27,17.90
2013,07,19,08,28,17.90
2013,07,19,08,29,17.90
2013,07,19,08,30,18.00
2013,07,19,08,31,18.00
2013,07,19,08,32,18.00
2013,07,19,08,33,18.00
2013,07,19,08,34,17.90
2013,07,19,08,35,17.80
2013,07,19,08,36,17.80
2013,07,19,08,37,17.70
2013,07,19,08,38,17.70
2013,07,19,08,39,17.70
2013,07,19,08,40,17.60
2013,07,19,08,41,17.60
2013,07,19,08,42,17.60
2013,07,19,08,43,17.60
2013,07,19,08,44,17.60
2013,07,19,08,45,17.60
2013,07,19,08,46,17.70
2013,07,19,08,47,17.70
2013,07,19,08,48,17.80
2013,07,19,08,49,17.80
2013,07,19,08,50,17.80
2013,07,19,08,51,17.70
2013,07,19,08,52,17.70
2013,07,19,08,53,17.70
2013,07,19,08,54,17.70
2013,07,19,08,55,17.80
2013,07,19,08,56,17.80
2013,07,19,08,57,17.80
2013,07,19,08,58,17.90
2013,07,19,08,59,18.00
2013,07,19,09,00,18.10
2013,07,19,09,01,18.20
2013,07,19,09,02,18.20
2013,07,19,09,03,18.30
2013,07,19,09,04,18.30
2013,07,19,09,05,18.40
2013,07,19,09,06,18.30
2013,07,19,09,07,18.30
2013,07,19,09,08,18.30
2013,07,19,09,09,18.30
2013,07,19,09,10,18.20
2013,07,19,09,11,18.20
2013,07,19,09,12,18.20
2013,07,19,09,13,18.30
2013,07,19,09,14,18.40
2013,07,19,09,15,18.40
2013,07,19,09,16,18.50
2013,07,19,09,17,18.60
2013,07,19,09,18,18.60
2013,07,19,09,19,18.60
2013,07,19,09,20,18.60
2013,07,19,09,21,18.60
2013,07,19,09,22,18.70
2013,07,19,09,23,18.80
2013,07,19,09,24,18.70
2013,07,19,09,25,18.70
2013,07,19,09,26,18.60
2013,07,19,09,27,18.60
2013,07,19,09,28,18.70
2013,07,19,09,29,18.70
2013,07,19,09,30,18.70
2013,07,19,09,31,18.60
2013,07,19,09,32,18.50
2013,07,19,09,33,18.40
2013,07,19,09,34,18.30
2013,07,19,09,35,18.20
2013,07,19,09,36,18.20
2013,07,19,09,37,18.30
2013,07,19,09,38,18.30
2013,07,19,09,39,18.40
2013,07,19,09,40,18.30
2013,07,19,09,41,18.30
2013,07,19,09,42,18.40
2013,07,19,09,43,18.50
2013,07,19,09,44,18.60
2013,07,19,09,45,18.70
2013,07,19,09,46,18.70
2013,07,19,09,47,18.80
2013,07,19,09,48,18.80
2013,07,19,09,49,18.90
2013,07,19,09,50,18.90
2013,07,19,09,51,18.90
2013,07,19,09,52,18.90
2013,07,19,09,53,18.90
2013,07,19,09,54,18.90
2013,07,19,09,55,18.90
2013,07,19,09,56,18.90
2013,07,19,09,57,18.90
2013,07,19,09,58,19.00
2013,07,19,09,59,19.00
2013,07,19,10,00,19.00
2013,07,19,10,01,18.90
2013,07,19,10,02,18.90
2013,07,19,10,03,18.90
2013,07,19,10,04,19.00
2013,07,19,10,05,19.10
2013,07,19,10,06,19.20
2013,07,19,10,07,19.20
2013,07,19,10,08,19.20
2013,07,19,10,09,19.20
2013,07,19,10,10,19.20
2013,07,19,10,11,19.30
2013,07,19,10,12,19.40
2013,07,19,10,13,19.50
2013,07,19,10,14,19.60
2013,07,19,10,15,19.60
2013,07,19,10,16,19.60
2013,07,19,10,17,19.60
2013,07,19,10,18,19.60
2013,07,19,10,19,19.60
2013,07,19,10,20,19.70
2013,07,19,10,21,19.90
2013,07,19,10,22,20.00
2013,07,19,10,23,20.10
2013,07,19,10,24,20.20
2013,07,19,10,25,20.30
2013,07,19,10,26,20.30
2013,07,19,10,27,20.20
2013,07,19,10,28,20.10
2013,07,19,10,29,20.10
2013,07,19,10,30,20.10
2013,07,19,10,31,20.20
2013,07,19,10,32,20.20
2013,07,19,10,33,20.30
2013,07,19,10,34,20.30
2013,07,19,10,35,20.40
2013,07,19,10,36,20.40
2013,07,19,10,37,20.30
2013,07,19,10,38,20.30
2013,07,19,10,39,20.30
2013,07,19,10,40,20.40
2013,07,19,10,41,20.40
2013,07,19,10,42,20.40
2013,07,19,10,43,20.40
2013,07,19,10,44,20.40
2013,07,19,10,45,20.50
2013,07,19,10,46,20.50
2013,07,19,10,47,20.40
2013,07,19,10,48,20.30
2013,07,19,10,49,20.20
2013,07,19,10,50,20.20
2013,07,19,10,51,20.20
2013,07,19,10,52,20.30
2013,07,19,10,53,20.30
2013,07,19,10,54,20.30
2013,07,19,10,55,20.20
2013,07,19,10,56,20.10
2013,07,19,10,57,20.20
2013,07,19,10,58,20.20
2013,07,19,10,59,20.30
2013,07,19,11,00,20.20
2013,07,19,11,01,20.20
2013,07,19,11,02,20.20
2013,07,19,11,03,20.20
2013,07,19,11,04,20.20
2013,07,19,11,05,20.20
2013,07,19,11,06,20.10
2013,07,19,11,07,20.00
2013,07,19,11,08,20.10
2013,07,19,11,09,20.20
2013,07,19,11,10,20.20
2013,07,19,11,11,20.30
2013,07,19,11,12,20.40
2013,07,19,11,13,20.50
2013,07,19,11,14,20.50
2013,07,19,11,15,20.60
2013,07,19,11,16,20.60
2013,07,19,11,17,20.50
2013,07,19,11,18,20.60
2013,07,19,11,19,20.70
2013,07,19,11,20,20.80
2013,07,19,11,21,20.80
2013,07,19,11,22,20.90
2013,07,19,11,23,20.90
2013,07,19,11,24,21.00
2013,07,19,11,25,21.00
2013,07,19,11,26,21.00
2013,07,19,11,27,21.00
2013,07,19,11,28,21.00
2013,07,19,11,29,20.90
2013,07,19,11,30,20.90
2013,07,19,11,31,20.70
2013,07,19,11,32,20.70
2013,07,19,11,33,20.80
2013,07,19,11,34,20.80
2013,07,19,11,35,20.80
2013,07,19,11,36,20.90
2013,07,19,11,37,20.90
2013,07,19,11,38,21.00
2013,07,19,11,39,21.20
2013,07,19,11,40,21.20
2013,07,19,11,41,21.20
2013,07,19,11,42,21.20
2013,07,19,11,43,21.30
2013,07,19,11,44,21.20
2013,07,19,11,45,21.10
2013,07,19,11,46,21.00
2013,07,19,11,47,21.00
2013,07,19,11,48,21.00
2013,07,19,11,49,21.10
2013,07,19,11,50,21.10
2013,07,19,11,51,21.20
2013,07,19,11,52,21.20
2013,07,19,11,53,21.20
2013,07,19,11,54,21.30
2013,07,19,11,55,21.30
2013,07,19,11,56,21.30
2013,07,19,11,57,21.30
2013,07,19,11,58,21.40
2013,07,19,11,59,21.40
2013,07,19,12,00,21.40
2013,07,19,12,01,21.40
2013,07,19,12,02,21.40
2013,07,19,12,03,21.50
2013,07,19,12,04,21.60
2013,07,19,12,05,21.50
2013,07,19,12,06,21.30
2013,07,19,12,07,21.20
2013,07,19,12,08,21.10
2013,07,19,12,09,21.00
2013,07,19,12,10,21.00
2013,07,19,12,11,21.00
2013,07,19,12,12,20.90
2013,07,19,12,13,20.90
2013,07,19,12,14,20.90
2013,07,19,12,15,21.00
2013,07,19,12,16,21.10
2013,07,19,12,17,21.10
2013,07,19,12,18,21.20
2013,07,19,12,19,21.20
2013,07,19,12,20,21.30
2013,07,19,12,21,21.30
2013,07,19,12,22,21.30
2013,07,19,12,23,21.30
2013,07,19,12,24,21.30
2013,07,19,12,25,21.40
2013,07,19,12,26,21.50
2013,07,19,12,27,21.50
2013,07,19,12,28,21.50
2013,07,19,12,29,21.50
2013,07,19,12,30,21.50
2013,07,19,12,31,21.40
2013,07,19,12,32,21.30
2013,07,19,12,33,21.20
2013,07,19,12,34,21.20
2013,07,19,12,35,21.30
2013,07,19,12,36,21.30
2013,07,19,12,37,21.20
2013,07,19,12,38,21.20
2013,07,19,12,39,21.10
2013,07,19,12,40,21.00
2013,07,19,12,41,20.90
2013,07,19,12,42,20.90
2013,07,19,12,43,21.00
2013,07,19,12,44,21.10
2013,07,19,12,45,21.30
2013,07,19,12,46,21.50
2013,07,19,12,47,21.60
2013,07,19,12,48,21.70
2013,07,19,12,49,21.80
2013,07,19,12,50,21.70
2013,07,19,12,51,21.60
2013,07,19,12,52,21.60
2013,07,19,12,53,21.60
2013,07,19,12,54,21.60
2013,07,19,12,55,21.70
2013,07,19,12,56,21.70
2013,07,19,12,57,21.80
2013,07,19,12,58,21.80
2013,07,19,12,59,21.80
2013,07,19,13,00,21.90
2013,07,19,13,01,22.00
2013,07,19,13,02,22.10
2013,07,19,13,03,22.00
2013,07,19,13,04,22.00
2013,07,19,13,05,21.90
2013,07,19,13,06,21.90
2013,07,19,13,07,21.90
2013,07,19,13,08,22.00
2013,07,19,13,09,22.10
2013,07,19,13,10,22.20
2013,07,19,13,11,22.20
2013,07,19,13,12,22.20
2013,07,19,13,13,22.10
2013,07,19,13,14,22.10
2013,07,19,13,15,22.00
2013,07,19,13,16,21.90
2013,07,19,13,17,21.90
2013,07,19,13,18,22.00
2013,07,19,13,19,22.20
2013,07,19,13,20,22.20
2013,07,19,13,21,22.30
2013,07,19,13,22,22.20
2013,07,19,13,23,22.20
2013,07,19,13,24,22.10
2013,07,19,13,25,22.10
2013,07,19,13,26,22.00
2013,07,19,13,27,21.90
2013,07,19,13,28,21.80
2013,07,19,13,29,21.80
2013,07,19,13,30,21.80
2013,07,19,13,31,21.90
2013,07,19,13,32,21.90
2013,07,19,13,33,21.90
2013,07,19,13,34,21.80
2013,07,19,13,35,21.70
2013,07,19,13,36,21.70
2013,07,19,13,37,21.60
2013,07,19,13,38,21.60
2013,07,19,13,39,21.60
2013,07,19,13,40,21.70
2013,07,19,13,41,21.70
2013,07,19,13,42,21.70
2013,07,19,13,43,21.60
2013,07,19,13,44,21.50
2013,07,19,13,45,21.40
2013,07,19,13,46,21.40
2013,07,19,13,47,21.40
2013,07,19,13,48,21.60
2013,07,19,13,49,21.70
2013,07,19,13,50,21.80
2013,07,19,13,51,21.90
2013,07,19,13,52,21.90
2013,07,19,13,53,21.90
2013,07,19,13,54,21.80
2013,07,19,13,55,21.60
2013,07,19,13,56,21.60
2013,07,19,13,57,21.60
2013,07,19,13,58,21.70
2013,07,19,13,59,21.80
2013,07,19,14,00,21.80
2013,07,19,14,01,21.70
2013,07,19,14,02,21.70
2013,07,19,14,03,21.70
2013,07,19,14,04,21.90
2013,07,19,14,05,22.10
2013,07,19,14,06,22.20
2013,07,19,14,07,22.30
2013,07,19,14,08,22.50
2013,07,19,14,09,22.70
2013,07,19,14,10,22.80
2013,07,19,14,11,22.80
2013,07,19,14,12,22.80
2013,07,19,14,13,22.80
2013,07,19,14,14,22.80
2013,07,19,14,15,22.70
2013,07,19,14,16,22.60
2013,07,19,14,17,22.60
2013,07,19,14,18,22.60
2013,07,19,14,19,22.50
2013,07,19,14,20,22.40
2013,07,19,14,21,22.50
2013,07,19,14,22,22.50
2013,07,19,14,23,22.40
2013,07,19,14,24,22.50
2013,07,19,14,25,22.50
2013,07,19,14,26,22.60
2013,07,19,14,27,22.70
2013,07,19,14,28,22.80
2013,07,19,14,29,22.70
2013,07,19,14,30,22.60
2013,07,19,14,31,22.60
2013,07,19,14,32,22.60
2013,07,19,14,33,22.70
2013,07,19,14,34,22.80
2013,07,19,14,35,22.70
2013,07,19,14,36,22.60
2013,07,19,14,37,22.40
2013,07,19,14,38,22.40
2013,07,19,14,39,22.40
2013,07,19,14,40,22.50
2013,07,19,14,41,22.60
2013,07,19,14,42,22.60
2013,07,19,14,43,22.70
2013,07,19,14,44,22.60
2013,07,19,14,45,22.60
2013,07,19,14,46,22.60
2013,07,19,14,47,22.60
2013,07,19,14,48,22.70
2013,07,19,14,49,22.70
2013,07,19,14,50,22.70
2013,07,19,14,51,22.60
2013,07,19,14,52,22.60
2013,07,19,14,53,22.60
2013,07,19,14,54,22.60
2013,07,19,14,55,22.60
2013,07,19,14,56,22.70
2013,07,19,14,57,22.70
2013,07,19,14,58,22.80
2013,07,19,14,59,22.90
2013,07,19,15,00,23.00
2013,07,19,15,01,23.00
2013,07,19,15,02,23.10
2013,07,19,15,03,23.10
2013,07,19,15,04,23.00
2013,07,19,15,05,23.00
2013,07,19,15,06,23.00
2013,07,19,15,07,23.00
2013,07,19,15,08,23.00
2013,07,19,15,09,22.90
2013,07,19,15,10,22.90
2013,07,19,15,11,22.80
2013,07,19,15,12,22.70
2013,07,19,15,13,22.70
2013,07,19,15,14,22.60
2013,07,19,15,15,22.60
2013,07,19,15,16,22.60
2013,07,19,15,17,22.50
2013,07,19,15,18,22.40
2013,07,19,15,19,22.40
2013,07,19,15,20,22.30
2013,07,19,15,21,22.40
2013,07,19,15,22,22.60
2013,07,19,15,23,22.70
2013,07,19,15,24,22.70
2013,07,19,15,25,22.70
2013,07,19,15,26,22.80
2013,07,19,15,27,22.80
2013,07,19,15,28,22.90
2013,07,19,15,29,23.00
2013,07,19,15,30,23.10
2013,07,19,15,31,23.20
2013,07,19,15,32,23.20
2013,07,19,15,33,23.20
2013,07,19,15,34,23.20
2013,07,19,15,35,23.20
2013,07,19,15,36,23.20
2013,07,19,15,37,23.20
2013,07,19,15,38,23.20
2013,07,19,15,39,23.20
2013,07,19,15,40,23.30
2013,07,19,15,41,23.30
2013,07,19,15,42,23.40
2013,07,19,15,43,23.40
2013,07,19,15,44,23.40
2013,07,19,15,45,23.50
2013,07,19,15,46,23.50
2013,07,19,15,47,23.60
2013,07,19,15,48,23.50
2013,07,19,15,49,23.40
2013,07,19,15,50,23.20
2013,07,19,15,51,23.00
2013,07,19,15,52,23.00
2013,07,19,15,53,23.00
2013,07,19,15,54,23.00
2013,07,19,15,55,23.10
2013,07,19,15,56,23.20
2013,07,19,15,57,23.30
2013,07,19,15,58,23.40
2013,07,19,15,59,23.40
2013,07,19,16,00,23.50
2013,07,19,16,01,23.40
2013,07,19,16,02,23.40
2013,07,19,16,03,23.40
2013,07,19,16,04,23.40
2013,07,19,16,05,23.50
2013,07,19,16,06,23.60
2013,07,19,16,07,23.70
2013,07,19,16,08,23.70
2013,07,19,16,09,23.50
2013,07,19,16,10,23.50
2013,07,19,16,11,23.50
2013,07,19,16,12,23.60
2013,07,19,16,13,23.70
2013,07,19,16,14,23.60
2013,07,19,16,15,23.60
2013,07,19,16,16,23.40
2013,07,19,16,17,23.30
2013,07,19,16,18,23.10
2013,07,19,16,19,23.10
2013,07,19,16,20,23.20
2013,07,19,16,21,23.30
2013,07,19,16,22,23.40
2013,07,19,16,23,23.50
2013,07,19,16,24,23.60
2013,07,19,16,25,23.70
2013,07,19,16,26,23.60
2013,07,19,16,27,23.60
2013,07,19,16,28,23.70
2013,07,19,16,29,23.80
2013,07,19,16,30,23.80
2013,07,19,16,31,23.70
2013,07,19,16,32,23.70
2013,07,19,16,33,23.70
2013,07,19,16,34,23.70
2013,07,19,16,35,23.60
2013,07,19,16,36,23.50
2013,07,19,16,37,23.30
2013,07,19,16,38,23.20
2013,07,19,16,39,23.10
2013,07,19,16,40,23.10
2013,07,19,16,41,23.00
2013,07,19,16,42,23.00
2013,07,19,16,43,22.90
2013,07,19,16,44,22.90
2013,07,19,16,45,22.90
2013,07,19,16,46,22.90
2013,07,19,16,47,23.00
2013,07,19,16,48,23.00
2013,07,19,16,49,23.20
2013,07,19,16,50,23.30
2013,07,19,16,51,23.30
2013,07,19,16,52,23.30
2013,07,19,16,53,23.20
2013,07,19,16,54,23.00
2013,07,19,16,55,22.90
2013,07,19,16,56,22.90
2013,07,19,16,57,23.00
2013,07,19,16,58,23.10
2013,07,19,16,59,23.20
2013,07,19,17,00,23.10
2013,07,19,17,01,22.90
2013,07,19,17,02,22.80
2013,07,19,17,03,22.80
2013,07,19,17,04,22.80
2013,07,19,17,05,22.80
2013,07,19,17,06,22.90
2013,07,19,17,07,23.00
2013,07,19,17,08,23.00
2013,07,19,17,09,22.90
2013,07,19,17,10,22.90
2013,07,19,17,11,22.80
2013,07,19,17,12,22.80
2013,07,19,17,13,22.80
2013,07,19,17,14,22.90
2013,07,19,17,15,23.00
2013,07,19,17,16,23.00
2013,07,19,17,17,23.00
2013,07,19,17,18,23.00
2013,07,19,17,19,22.90